NORTHERN NASSAU  -  Areal Flood Advisory Areal Flood Advisory     Flash Flood Watch Flash Flood Watch     Rip Current Statement Rip Current Statement        NORTHERN QUEENS  -  Areal Flood Advisory Areal Flood Advisory     Flash Flood Watch Flash Flood Watch     Rip Current Statement Rip Current Statement        SOUTHERN NASSAU  -  Areal Flood Advisory Areal Flood Advisory     Flash Flood Watch Flash Flood Watch     Rip Current Statement Rip Current Statement        SOUTHERN QUEENS  -  Areal Flood Advisory Areal Flood Advisory     Flash Flood Watch Flash Flood Watch     Rip Current Statement Rip Current Statement        NORTHEAST SUFFOLK  -  Rip Current Statement Rip Current Statement        NORTHWEST SUFFOLK  -  Rip Current Statement Rip Current Statement        SOUTHEAST SUFFOLK  -  Rip Current Statement Rip Current Statement        SOUTHWEST SUFFOLK  -  Rip Current Statement Rip Current Statement      

Active alerts

Northern Queens
  Details for Northern Queens Areal Flood Advisory  +2 additional alerts
Southern Queens
  Details for Southern Queens Areal Flood Advisory  +2 additional alerts
Northern Nassau
  Details for Northern Nassau Areal Flood Advisory  +2 additional alerts
Southern Nassau
  Details for Southern Nassau Areal Flood Advisory  +2 additional alerts
Northwest Suffolk
  Details for Northwest Suffolk Rip Current Statement
Southwest Suffolk
  Details for Southwest Suffolk Rip Current Statement
Northeast Suffolk
  Details for Northeast Suffolk Rip Current Statement
Southeast Suffolk
  Details for Southeast Suffolk Rip Current Statement


WXM80 ListenWXM80 Stop

You find our weather info also at:

UK Metoffice

WeatherCloud

Weather Underground

Northeastern Weather Network

AWEKAS

Citizen Weather Observer Program (CWOP)

HAMweather, WeatherForYou, PWS Weather


Weather Underground History page Text

Daily Summary for March 7, 2017 Units:  Metric    English   Both
« Previous Day
Next Day »
Daily Weekly Monthly Yearly Custom
  High: Low: Average:
Temperature: 11.6 °C 4.2 °C 8.5 °C
Dew Point: 8.9 °C 0.5 °C 6.3 °C
Humidity: 94 % 77 % 86 %
Wind Speed: 14.5 km/h 0 km/h 5.3 km/h
Wind Gust: 31.5 km/h - -
Wind:- - South
Pressure: 1029.3 hPa 1015.1 hPa -
Precipitation: 0 mm    
Historical Graphs
 
 
Tabular Data for March 7, 2017
Time Temperature Dew Point Pressure Wind Wind Speed Wind Gust Humidity Rainfall Rate (Hourly)
00:02 4.2 °C 0.5 °C 1029.3 hPa South 4.8 km/h 7.4 km/h 77 % 0 mm
00:07 4.2 °C 0.7 °C 1029.3 hPa Calm   1.6 km/h 78 % 0 mm
00:12 4.3 °C 0.8 °C 1029.3 hPa South 1.8 km/h 5.6 km/h 78 % 0 mm
00:17 4.3 °C 0.8 °C 1029 hPa Calm   1.9 km/h 78 % 0 mm
00:22 4.3 °C 0.8 °C 1029.3 hPa SSE 1.3 km/h 5.6 km/h 78 % 0 mm
00:28 4.4 °C 0.9 °C 1029.3 hPa SSW 0.2 km/h 1.9 km/h 78 % 0 mm
00:33 4.4 °C 0.9 °C 1029.3 hPa South 0.5 km/h 5.6 km/h 78 % 0 mm
00:38 4.4 °C 1.1 °C 1029.3 hPa SSW 1.1 km/h 3.7 km/h 79 % 0 mm
00:43 4.4 °C 1.1 °C 1029.3 hPa South 1.6 km/h 5.6 km/h 79 % 0 mm
00:48 4.5 °C 1.2 °C 1029.3 hPa South 1.8 km/h 1.9 km/h 79 % 0 mm
00:53 4.5 °C 1.2 °C 1029.3 hPa Calm   4.8 km/h 79 % 0 mm
00:58 4.6 °C 1.2 °C 1029 hPa South 0.8 km/h 1.9 km/h 79 % 0 mm
01:03 4.6 °C 1.2 °C 1029 hPa South 1.6 km/h 4.8 km/h 79 % 0 mm
01:08 4.6 °C 1.2 °C 1029 hPa SSW 1.6 km/h 3.2 km/h 79 % 0 mm
01:13 4.6 °C 1.4 °C 1029 hPa SSE 1.1 km/h 3.7 km/h 80 % 0 mm
01:18 4.7 °C 1.5 °C 1029 hPa Calm     80 % 0 mm
01:23 4.7 °C 1.6 °C 1029 hPa South 3.2 km/h 8 km/h 80 % 0 mm
01:28 4.7 °C 1.6 °C 1029 hPa Calm   5.6 km/h 80 % 0 mm
01:33 4.8 °C 1.6 °C 1029 hPa Calm   3.2 km/h 80 % 0 mm
01:38 4.8 °C 1.6 °C 1029 hPa South 1.6 km/h 6.4 km/h 80 % 0 mm
01:43 4.8 °C 1.7 °C 1028.7 hPa South 1.4 km/h 3.7 km/h 80 % 0 mm
01:48 4.9 °C 1.7 °C 1028.7 hPa South 4.8 km/h 9.7 km/h 80 % 0 mm
01:53 4.9 °C 1.8 °C 1028.7 hPa Calm   6.4 km/h 80 % 0 mm
01:54 4.9 °C 1.8 °C 1028.7 hPa SSE 2.9 km/h 5.6 km/h 80 % 0 mm
01:59 5 °C 1.8 °C 1028.7 hPa SSW 2.3 km/h 5.6 km/h 80 % 0 mm
02:05 5.1 °C 1.9 °C 1028.7 hPa SSE 1.4 km/h 5.6 km/h 80 % 0 mm
02:10 5.1 °C 1.7 °C 1028.3 hPa SSW 4.7 km/h 8 km/h 79 % 0 mm
02:15 5.1 °C 1.8 °C 1028.3 hPa South 2.6 km/h 5.6 km/h 79 % 0 mm
02:20 5.2 °C 1.8 °C 1028.3 hPa South 1.9 km/h 7.4 km/h 79 % 0 mm
02:25 5.2 °C 1.8 °C 1028.3 hPa Calm   1.6 km/h 79 % 0 mm
02:30 5.2 °C 2 °C 1028.3 hPa South 5.6 km/h 7.4 km/h 80 % 0 mm
02:35 5.2 °C 2 °C 1028.3 hPa South 2.4 km/h 6.4 km/h 80 % 0 mm
02:40 5.2 °C 2 °C 1028 hPa South 1 km/h 3.7 km/h 80 % 0 mm
02:45 5.2 °C 2.2 °C 1028 hPa SSE 1.6 km/h 5.6 km/h 81 % 0 mm
02:50 5.2 °C 2.2 °C 1028 hPa SSE 3.4 km/h 5.6 km/h 81 % 0 mm
02:55 5.2 °C 2.2 °C 1028 hPa South 1.8 km/h 5.6 km/h 81 % 0 mm
03:00 5.2 °C 2.2 °C 1028 hPa SSE 2.6 km/h 5.6 km/h 81 % 0 mm
03:05 5.3 °C 2.3 °C 1027.7 hPa SSW 2.3 km/h 4.8 km/h 81 % 0 mm
03:11 5.3 °C 2.4 °C 1027.7 hPa South 3.5 km/h 7.4 km/h 82 % 0 mm
03:14 5.3 °C 2.4 °C 1027.7 hPa SSE 3.5 km/h 7.4 km/h 82 % 0 mm
03:20 5.3 °C 2.5 °C 1027.7 hPa SSE 0.8 km/h 5.6 km/h 82 % 0 mm
03:25 5.3 °C 2.5 °C 1027.7 hPa SSE 2.1 km/h 6.4 km/h 82 % 0 mm
03:30 5.4 °C 2.6 °C 1027.7 hPa SE 0.8 km/h 3.7 km/h 82 % 0 mm
03:35 5.4 °C 2.6 °C 1027.7 hPa SSW 3.7 km/h 8 km/h 82 % 0 mm
03:40 5.4 °C 2.6 °C 1027.7 hPa SSW 4.3 km/h 5.6 km/h 82 % 0 mm
03:45 5.5 °C 2.7 °C 1027.7 hPa SSE 0.2 km/h 1.9 km/h 82 % 0 mm
03:50 5.5 °C 2.7 °C 1027.7 hPa South 1.6 km/h 5.6 km/h 82 % 0 mm
03:55 5.6 °C 2.7 °C 1027.7 hPa SE 0.3 km/h 1.9 km/h 82 % 0 mm
04:00 5.6 °C 2.7 °C 1027.7 hPa Calm   5.6 km/h 82 % 0 mm
04:05 5.6 °C 2.8 °C 1027.7 hPa SSE 6 km/h 11.3 km/h 82 % 0 mm
04:10 5.7 °C 3 °C 1027.7 hPa SSW 0.6 km/h 4.8 km/h 83 % 0 mm
04:15 5.7 °C 3 °C 1027.7 hPa SSE 2.3 km/h 3.7 km/h 83 % 0 mm
04:20 5.7 °C 3.1 °C 1027.7 hPa SSE 5.1 km/h 7.4 km/h 83 % 0 mm
04:26 5.8 °C 3.1 °C 1027.7 hPa SSE 3.9 km/h 7.4 km/h 83 % 0 mm
04:31 5.8 °C 3.1 °C 1027.7 hPa SSE 1.8 km/h 3.7 km/h 83 % 0 mm
04:36 5.8 °C 3.2 °C 1027.7 hPa SSE 1.4 km/h 5.6 km/h 83 % 0 mm
04:41 5.8 °C 3.2 °C 1027.7 hPa SSE 6.4 km/h 11.1 km/h 83 % 0 mm
04:46 5.8 °C 3.2 °C 1027.7 hPa South 4.8 km/h 7.4 km/h 83 % 0 mm
04:51 5.8 °C 3.2 °C 1027.7 hPa SE 3.9 km/h 6.4 km/h 83 % 0 mm
04:56 5.8 °C 3.2 °C 1027.7 hPa SE 3.9 km/h 7.4 km/h 83 % 0 mm
05:01 5.8 °C 3.2 °C 1027.7 hPa SSE 4.2 km/h 7.4 km/h 83 % 0 mm
05:06 5.9 °C 3.2 °C 1027.7 hPa SE 2.3 km/h 5.6 km/h 83 % 0 mm
05:11 5.9 °C 3.2 °C 1027.7 hPa SE 1.9 km/h 5.6 km/h 83 % 0 mm
05:16 5.9 °C 3.2 °C 1027.7 hPa SSE 1.6 km/h 5.6 km/h 83 % 0 mm
05:21 5.9 °C 3.3 °C 1027.3 hPa SSE 1.9 km/h 5.6 km/h 83 % 0 mm
05:27 5.9 °C 3.3 °C 1027.3 hPa Calm     83 % 0 mm
05:32 5.9 °C 3.3 °C 1027.3 hPa SSE 2.3 km/h 9.3 km/h 83 % 0 mm
05:37 6 °C 3.3 °C 1027.3 hPa SE 2.3 km/h 5.6 km/h 83 % 0 mm
05:42 6 °C 3.3 °C 1027.3 hPa SSE 3.9 km/h 5.6 km/h 83 % 0 mm
05:47 6.1 °C 3.6 °C 1027.7 hPa SSE 2.1 km/h 5.6 km/h 84 % 0 mm
05:52 6.1 °C 3.6 °C 1027.7 hPa SSE 4.5 km/h 7.4 km/h 84 % 0 mm
05:57 6.1 °C 3.6 °C 1027.7 hPa SSW 1.8 km/h 5.6 km/h 84 % 0 mm
06:02 6.1 °C 3.6 °C 1027.7 hPa SSE 2.6 km/h 5.6 km/h 84 % 0 mm
06:07 6.2 °C 3.7 °C 1027.7 hPa SE 3.2 km/h 5.6 km/h 84 % 0 mm
06:12 6.2 °C 3.9 °C 1027.3 hPa SE 1 km/h 5.6 km/h 85 % 0 mm
06:17 6.3 °C 3.9 °C 1027.3 hPa SSE 1.9 km/h 5.6 km/h 85 % 0 mm
06:22 6.3 °C 3.9 °C 1027.3 hPa SSE 0.8 km/h 5.6 km/h 85 % 0 mm
06:28 6.3 °C 4 °C 1027.3 hPa South 5.5 km/h 6.4 km/h 85 % 0 mm
06:33 6.4 °C 4.2 °C 1027.3 hPa SE 5.6 km/h 11.1 km/h 86 % 0 mm
06:38 6.4 °C 4.3 °C 1027.3 hPa SSE 2.6 km/h 5.6 km/h 86 % 0 mm
06:43 6.4 °C 4.3 °C 1027.3 hPa SE 0.3 km/h 1.9 km/h 86 % 0 mm
06:48 6.4 °C 4.3 °C 1027.3 hPa Calm   4.8 km/h 86 % 0 mm
06:53 6.4 °C 4.3 °C 1027.7 hPa Calm   1.6 km/h 86 % 0 mm
06:58 6.5 °C 4.3 °C 1027.3 hPa SE 3.7 km/h 5.6 km/h 86 % 0 mm
07:03 6.6 °C 4.6 °C 1027.3 hPa SE 4.8 km/h 11.3 km/h 87 % 0 mm
07:08 6.6 °C 4.6 °C 1027.3 hPa SE 1.6 km/h 9.7 km/h 87 % 0 mm
07:13 6.7 °C 4.7 °C 1027.3 hPa SE 3.2 km/h 11.3 km/h 87 % 0 mm
07:18 6.7 °C 4.7 °C 1027.3 hPa SE 4.8 km/h 12.9 km/h 87 % 0 mm
07:21 6.8 °C 4.8 °C 1027 hPa SSE 6.1 km/h 14.8 km/h 87 % 0 mm
07:26 6.9 °C 4.9 °C 1027 hPa SSE 8.9 km/h 16.1 km/h 87 % 0 mm
07:31 7 °C 5 °C 1027 hPa South 5 km/h 13 km/h 87 % 0 mm
07:36 7.1 °C 5.1 °C 1027 hPa South 7.9 km/h 13 km/h 87 % 0 mm
07:41 7.2 °C 5.2 °C 1027 hPa SSE 6.4 km/h 14.8 km/h 87 % 0 mm
07:46 7.2 °C 5.2 °C 1027 hPa South 5.8 km/h 13 km/h 87 % 0 mm
07:51 7.3 °C 5.3 °C 1027 hPa South 4.2 km/h 6.4 km/h 87 % 0 mm
07:56 7.3 °C 5.3 °C 1027 hPa SSE 8.9 km/h 14.8 km/h 87 % 0 mm
08:01 7.4 °C 5.4 °C 1027 hPa SSE 2.4 km/h 13 km/h 87 % 0 mm
08:06 7.4 °C 5.6 °C 1026.6 hPa South 6.9 km/h 13 km/h 88 % 0 mm
08:11 7.5 °C 5.7 °C 1027 hPa SSW 3.5 km/h 8 km/h 88 % 0 mm
08:17 7.6 °C 5.7 °C 1026.6 hPa SE 8.5 km/h 20.4 km/h 88 % 0 mm
08:22 7.7 °C 5.7 °C 1026.6 hPa SSE 14 km/h 22.5 km/h 87 % 0 mm
08:27 7.8 °C 5.8 °C 1026.6 hPa South 10.5 km/h 18.5 km/h 87 % 0 mm
08:32 7.9 °C 5.9 °C 1026.3 hPa South 6.9 km/h 11.1 km/h 87 % 0 mm
08:37 8.1 °C 6 °C 1026.6 hPa SE 12.7 km/h 13 km/h 87 % 0 mm
08:42 8.2 °C 5.9 °C 1026.6 hPa South 8.9 km/h 14.8 km/h 86 % 0 mm
08:47 8.3 °C 6.1 °C 1026.3 hPa SSE 9.8 km/h 18.5 km/h 86 % 0 mm
08:52 8.4 °C 6.2 °C 1026.3 hPa SSE 13.5 km/h 31.5 km/h 86 % 0 mm
08:57 8.5 °C 6.1 °C 1026.3 hPa SSE 10.3 km/h 18.5 km/h 85 % 0 mm
09:02 8.7 °C 6.3 °C 1026.3 hPa South 9.5 km/h 17.7 km/h 85 % 0 mm
09:07 8.8 °C 6.3 °C 1026.3 hPa SSE 11.4 km/h 22.2 km/h 84 % 0 mm
09:13 8.9 °C 6.4 °C 1026.3 hPa SSW 12.1 km/h 20.4 km/h 84 % 0 mm
09:18 9.1 °C 6.3 °C 1026 hPa SSW 9 km/h 18.5 km/h 83 % 0 mm
09:23 9.1 °C 6.4 °C 1026 hPa South 8.7 km/h 16.7 km/h 83 % 0 mm
09:28 9.2 °C 6.4 °C 1026 hPa SSW 11.1 km/h 22.2 km/h 83 % 0 mm
09:33 9.2 °C 6.5 °C 1026 hPa South 4.8 km/h 19.3 km/h 83 % 0 mm
09:38 9.3 °C 6.6 °C 1026 hPa South 8 km/h 25.7 km/h 83 % 0 mm
09:43 9.3 °C 6.6 °C 1026 hPa South 4.8 km/h 25.7 km/h 83 % 0 mm
09:48 9.4 °C 6.7 °C 1025.6 hPa South 9.7 km/h 19.3 km/h 83 % 0 mm
09:53 9.4 °C 6.7 °C 1025.6 hPa South 8 km/h 19.3 km/h 83 % 0 mm
09:58 9.5 °C 6.8 °C 1025.6 hPa SE 4.2 km/h 16.1 km/h 83 % 0 mm
10:03 9.5 °C 6.9 °C 1025.6 hPa South 9.7 km/h 22.5 km/h 84 % 0 mm
10:08 9.5 °C 6.9 °C 1025.3 hPa South 8 km/h 16.1 km/h 84 % 0 mm
10:13 9.4 °C 7.1 °C 1025.3 hPa South 8 km/h 14.5 km/h 85 % 0 mm
10:18 9.4 °C 7 °C 1025.3 hPa South 8.7 km/h 16.1 km/h 85 % 0 mm
10:23 9.3 °C 7.1 °C 1024.9 hPa South 9.7 km/h 20.9 km/h 86 % 0 mm
10:28 9.3 °C 7.1 °C 1024.9 hPa South 4.8 km/h 14.5 km/h 86 % 0 mm
10:33 9.3 °C 7.2 °C 1024.9 hPa South 5.8 km/h 11.1 km/h 87 % 0 mm
10:38 9.3 °C 7.4 °C 1024.9 hPa SSE 12.9 km/h 24.1 km/h 88 % 0 mm
10:43 9.3 °C 7.4 °C 1024.6 hPa SE 10.5 km/h 14.8 km/h 88 % 0 mm
10:48 9.3 °C 7.4 °C 1024.9 hPa South 9.7 km/h 19.3 km/h 88 % 0 mm
10:53 9.2 °C 7.4 °C 1024.9 hPa South 9.7 km/h 25.7 km/h 89 % 0 mm
10:58 9.2 °C 7.4 °C 1024.6 hPa South 9.8 km/h 16.7 km/h 89 % 0 mm
11:03 9.1 °C 7.5 °C 1024.6 hPa South 6.3 km/h 18.5 km/h 90 % 0 mm
11:08 9 °C 7.4 °C 1024.6 hPa SSE 6.8 km/h 11.3 km/h 90 % 0 mm
11:13 8.9 °C 7.5 °C 1024.3 hPa South 6.9 km/h 9.7 km/h 91 % 0 mm
11:18 8.9 °C 7.5 °C 1024.6 hPa South 6 km/h 14.8 km/h 91 % 0 mm
11:23 8.9 °C 7.7 °C 1024.3 hPa South 6.4 km/h 16.7 km/h 92 % 0.25 mm
11:28 9 °C 7.9 °C 1024.3 hPa SSE 6.3 km/h 9.3 km/h 93 % 0.25 mm
11:34 9.1 °C 8 °C 1024.3 hPa SSW 5.5 km/h 11.3 km/h 93 % 0.25 mm
11:39 9.1 °C 8.1 °C 1024.3 hPa South 3.9 km/h 9.7 km/h 93 % 0.25 mm
11:44 9.2 °C 8.1 °C 1024.3 hPa SSW 5.6 km/h 11.3 km/h 93 % 0.25 mm
11:49 9.2 °C 8.2 °C 1024.3 hPa South 7.4 km/h 9.7 km/h 93 % 0.25 mm
11:54 9.3 °C 8.2 °C 1023.9 hPa SSE 6.1 km/h 14.8 km/h 93 % 0.25 mm
11:59 9.3 °C 8.2 °C 1023.9 hPa SSW 7.2 km/h 11.1 km/h 93 % 0.25 mm
12:04 9.3 °C 8.2 °C 1023.9 hPa SSW 5.1 km/h 9.3 km/h 93 % 0.25 mm
12:09 9.3 °C 8.3 °C 1023.6 hPa South 2.9 km/h 11.1 km/h 93 % 0.25 mm
12:14 9.4 °C 8.4 °C 1023.6 hPa South 1.9 km/h 4.8 km/h 94 % 0.25 mm
12:20 9.4 °C 8.5 °C 1023.2 hPa SSE 4.3 km/h 9.3 km/h 94 % 0.25 mm
12:25 9.4 °C 8.4 °C 1023.2 hPa South 6.3 km/h 13 km/h 93 % 0 mm
12:30 9.4 °C 8.4 °C 1022.9 hPa SSE 8 km/h 11.3 km/h 93 % 0 mm
12:35 9.5 °C 8.4 °C 1022.9 hPa SSE 4.5 km/h 5.6 km/h 93 % 0 mm
12:40 9.6 °C 8.5 °C 1022.9 hPa SSE 3.9 km/h 6.4 km/h 93 % 0 mm
12:45 9.6 °C 8.7 °C 1022.9 hPa SSW 5.6 km/h 9.3 km/h 94 % 0 mm
12:50 9.7 °C 8.6 °C 1022.9 hPa SW 2.9 km/h 9.3 km/h 93 % 0 mm
12:55 9.7 °C 8.6 °C 1022.6 hPa South 3.5 km/h 5.6 km/h 93 % 0 mm
13:00 9.6 °C 8.6 °C 1022.6 hPa South 2.6 km/h 5.6 km/h 93 % 0 mm
13:05 9.7 °C 8.6 °C 1022.6 hPa South 2.3 km/h 5.6 km/h 93 % 0 mm
13:10 9.7 °C 8.7 °C 1022.6 hPa South 4.5 km/h 11.1 km/h 94 % 0 mm
13:15 9.7 °C 8.7 °C 1022.2 hPa South 5.3 km/h 13 km/h 93 % 0 mm
13:20 9.7 °C 8.6 °C 1022.2 hPa South 7.4 km/h 12.9 km/h 93 % 0 mm
13:25 9.7 °C 8.6 °C 1022.2 hPa South 5.8 km/h 11.1 km/h 93 % 0 mm
13:30 9.7 °C 8.6 °C 1021.9 hPa SSE 6.4 km/h 9.7 km/h 93 % 0 mm
13:35 9.6 °C 8.6 °C 1021.6 hPa SSW 5 km/h 7.4 km/h 93 % 0 mm
13:41 9.7 °C 8.6 °C 1021.6 hPa South 5 km/h 11.3 km/h 93 % 0 mm
13:46 9.7 °C 8.4 °C 1021.6 hPa South 8.2 km/h 13 km/h 92 % 0 mm
13:51 9.7 °C 8.5 °C 1021.6 hPa South 8.2 km/h 13 km/h 92 % 0 mm
13:56 9.7 °C 8.5 °C 1021.6 hPa SSE 6.9 km/h 11.3 km/h 92 % 0 mm
14:01 9.7 °C 8.5 °C 1021.6 hPa South 5 km/h 9.3 km/h 92 % 0 mm
14:06 9.7 °C 8.5 °C 1021.6 hPa SW 9.3 km/h 14.5 km/h 92 % 0 mm
14:11 9.7 °C 8.3 °C 1021.6 hPa South 4.2 km/h 7.4 km/h 91 % 0 mm
14:16 9.7 °C 8.5 °C 1021.2 hPa SSW 5.1 km/h 9.7 km/h 92 % 0 mm
14:21 9.8 °C 8.6 °C 1021.2 hPa South 3.9 km/h 9.3 km/h 92 % 0 mm
14:26 9.9 °C 8.5 °C 1021.2 hPa SSE 3.4 km/h 7.4 km/h 91 % 0 mm
14:31 10 °C 8.6 °C 1020.9 hPa SW 5.3 km/h 11.3 km/h 91 % 0 mm
14:36 10.1 °C 8.7 °C 1020.9 hPa South 8.2 km/h 11.1 km/h 91 % 0 mm
14:41 10.2 °C 8.7 °C 1020.9 hPa SSW 6 km/h 9.7 km/h 90 % 0 mm
14:47 10.3 °C 8.7 °C 1020.9 hPa SSW 2.9 km/h 14.8 km/h 90 % 0 mm
14:52 10.3 °C 8.6 °C 1020.9 hPa South 6.8 km/h 11.1 km/h 89 % 0 mm
14:57 10.4 °C 8.7 °C 1020.9 hPa South 10.8 km/h 13 km/h 89 % 0 mm
15:02 10.5 °C 8.8 °C 1020.9 hPa SSW 6.6 km/h 14.8 km/h 89 % 0 mm
15:07 10.6 °C 8.7 °C 1020.9 hPa South 3.5 km/h 5.6 km/h 88 % 0 mm
15:12 10.7 °C 8.8 °C 1020.9 hPa South 5.8 km/h 9.3 km/h 88 % 0 mm
15:17 10.7 °C 8.7 °C 1020.9 hPa South 5.3 km/h 8 km/h 87 % 0 mm
15:22 10.8 °C 8.7 °C 1020.5 hPa SSE 3.4 km/h 9.3 km/h 87 % 0 mm
15:27 10.8 °C 8.8 °C 1020.9 hPa SSW 6 km/h 11.1 km/h 87 % 0 mm
15:32 10.8 °C 8.6 °C 1020.5 hPa South 0.5 km/h 5.6 km/h 86 % 0 mm
15:37 10.8 °C 8.6 °C 1020.5 hPa South 5.1 km/h 9.3 km/h 86 % 0 mm
15:42 10.7 °C 8.4 °C 1020.5 hPa SSW 3.7 km/h 11.1 km/h 86 % 0 mm
15:47 10.6 °C 8.4 °C 1020.5 hPa South 2.4 km/h 5.6 km/h 86 % 0 mm
15:52 10.6 °C 8.3 °C 1020.5 hPa SSW 0.5 km/h 3.2 km/h 86 % 0 mm
15:58 10.5 °C 8.3 °C 1020.5 hPa SSE 1.3 km/h 3.7 km/h 86 % 0 mm
16:03 10.4 °C 8.2 °C 1020.5 hPa SW 1.9 km/h 5.6 km/h 86 % 0 mm
16:08 10.4 °C 8.2 °C 1020.5 hPa Calm     86 % 0 mm
16:13 10.3 °C 8.3 °C 1020.5 hPa SW 1.1 km/h 3.2 km/h 87 % 0 mm
16:18 10.3 °C 8.3 °C 1020.5 hPa Calm   3.2 km/h 87 % 0 mm
16:23 10.2 °C 8.2 °C 1020.5 hPa Calm   8 km/h 87 % 0 mm
16:28 10.1 °C 8.2 °C 1020.5 hPa SSW 3.2 km/h 8 km/h 88 % 0 mm
16:33 10 °C 8.1 °C 1020.5 hPa SW 3.2 km/h 6.4 km/h 88 % 0 mm
16:38 9.9 °C 8.1 °C 1020.2 hPa SW 3.2 km/h 9.7 km/h 88 % 0 mm
16:43 9.8 °C 8.1 °C 1020.2 hPa Calm   8 km/h 89 % 0 mm
16:48 9.8 °C 8.1 °C 1020.2 hPa SSW 1.6 km/h 6.4 km/h 89 % 0 mm
16:53 9.7 °C 7.9 °C 1019.9 hPa SSW 1.6 km/h 8 km/h 89 % 0 mm
16:58 9.7 °C 7.9 °C 1019.9 hPa South 1 km/h 3.7 km/h 89 % 0 mm
17:03 9.6 °C 7.9 °C 1019.9 hPa SSW 0.3 km/h 1.9 km/h 89 % 0 mm
17:08 9.6 °C 7.8 °C 1019.9 hPa SSW 4.3 km/h 8 km/h 89 % 0 mm
17:13 9.6 °C 8 °C 1019.9 hPa Calm     90 % 0 mm
17:18 9.6 °C 8 °C 1019.9 hPa SW 3.9 km/h 5.6 km/h 90 % 0 mm
17:23 9.5 °C 7.9 °C 1019.9 hPa SW 0.8 km/h 3.2 km/h 90 % 0 mm
17:29 9.6 °C 8 °C 1019.5 hPa SSW 2.7 km/h 5.6 km/h 90 % 0 mm
17:34 9.6 °C 8 °C 1019.5 hPa South 1.6 km/h 5.6 km/h 90 % 0 mm
17:39 9.5 °C 7.9 °C 1019.5 hPa SSW 4.3 km/h 11.3 km/h 90 % 0 mm
17:44 9.6 °C 8 °C 1019.5 hPa SSW 1 km/h 13 km/h 90 % 0 mm
17:49 9.6 °C 8 °C 1019.5 hPa SW 3.9 km/h 7.4 km/h 90 % 0 mm
17:54 9.6 °C 8.1 °C 1019.5 hPa SSW 1.9 km/h 3.7 km/h 90 % 0 mm
17:59 9.7 °C 8.3 °C 1019.5 hPa South 0.5 km/h 1.9 km/h 91 % 0 mm
18:04 9.7 °C 8.3 °C 1019.2 hPa SSW 1.4 km/h 3.7 km/h 91 % 0 mm
18:09 9.7 °C 8.2 °C 1019.2 hPa SSW 5.8 km/h 11.1 km/h 90 % 0 mm
18:14 9.8 °C 8.4 °C 1019.2 hPa SW 5.8 km/h 7.4 km/h 91 % 0 mm
18:20 9.8 °C 8.3 °C 1019.5 hPa SW 1 km/h 3.7 km/h 90 % 0 mm
18:25 9.8 °C 8.3 °C 1019.2 hPa SSW 3.7 km/h 9.3 km/h 90 % 0 mm
18:30 9.8 °C 8.3 °C 1019.2 hPa South 5.8 km/h 11.1 km/h 90 % 0 mm
18:35 9.9 °C 8.3 °C 1019.2 hPa South 6.6 km/h 11.3 km/h 90 % 0 mm
18:40 9.9 °C 8.2 °C 1019.2 hPa SSW 6.3 km/h 9.7 km/h 89 % 0 mm
18:45 9.9 °C 8.2 °C 1018.8 hPa South 5.5 km/h 13 km/h 89 % 0 mm
18:50 9.9 °C 8.2 °C 1018.8 hPa South 5.5 km/h 9.3 km/h 89 % 0 mm
18:55 9.8 °C 8.1 °C 1018.8 hPa South 8.5 km/h 12.9 km/h 89 % 0 mm
19:00 9.8 °C 8.1 °C 1018.8 hPa SSW 7.4 km/h 11.1 km/h 89 % 0 mm
19:05 9.8 °C 8.1 °C 1018.8 hPa South 12.1 km/h 20.4 km/h 89 % 0 mm
19:10 9.8 °C 8.1 °C 1018.5 hPa South 8.4 km/h 13 km/h 89 % 0 mm
19:16 9.8 °C 8.1 °C 1018.5 hPa SSW 9.8 km/h 18.5 km/h 89 % 0 mm
19:21 9.9 °C 8.2 °C 1018.5 hPa South 6 km/h 11.3 km/h 89 % 0 mm
19:26 9.9 °C 8.2 °C 1018.5 hPa SW 12.1 km/h 18.5 km/h 89 % 0 mm
19:31 10 °C 8.3 °C 1018.5 hPa SW 9.7 km/h 13 km/h 89 % 0 mm
19:36 10 °C 8.3 °C 1018.5 hPa SSW 6.8 km/h 11.1 km/h 89 % 0 mm
19:41 10.1 °C 8.3 °C 1018.5 hPa SSW 10.8 km/h 13 km/h 89 % 0 mm
19:46 10.1 °C 8.4 °C 1018.5 hPa SSW 10.1 km/h 13 km/h 89 % 0 mm
19:51 10.2 °C 8.4 °C 1018.5 hPa SSW 9.8 km/h 16.7 km/h 89 % 0 mm
19:56 10.2 °C 8.5 °C 1018.5 hPa SSW 10.6 km/h 18.5 km/h 89 % 0 mm
20:01 10.3 °C 8.4 °C 1018.5 hPa SSW 7.4 km/h 14.8 km/h 88 % 0 mm
20:06 10.4 °C 8.5 °C 1018.5 hPa SW 13.4 km/h 18.5 km/h 88 % 0 mm
20:11 10.4 °C 8.6 °C 1018.2 hPa South 10.8 km/h 13 km/h 88 % 0 mm
20:16 10.6 °C 8.7 °C 1018.2 hPa SSW 9.8 km/h 20.4 km/h 88 % 0 mm
20:22 10.7 °C 8.6 °C 1018.2 hPa South 9 km/h 16.7 km/h 87 % 0 mm
20:27 10.7 °C 8.7 °C 1017.8 hPa South 7.6 km/h 11.1 km/h 87 % 0 mm
20:32 10.8 °C 8.8 °C 1018.2 hPa South 5.3 km/h 18.5 km/h 87 % 0 mm
20:37 10.9 °C 8.8 °C 1017.8 hPa South 8.7 km/h 18.5 km/h 87 % 0 mm
20:42 10.9 °C 8.7 °C 1017.8 hPa SSE 12.2 km/h 14.8 km/h 86 % 0 mm
20:47 11 °C 8.7 °C 1017.8 hPa South 8.9 km/h 14.5 km/h 86 % 0 mm
20:52 11.1 °C 8.8 °C 1017.8 hPa South 7.2 km/h 20.4 km/h 86 % 0 mm
20:57 11.2 °C 8.9 °C 1017.8 hPa SSW 6 km/h 13 km/h 86 % 0 mm
21:02 11.2 °C 8.8 °C 1017.8 hPa South 10.5 km/h 24.1 km/h 85 % 0 mm
21:07 11.3 °C 8.8 °C 1017.5 hPa South 8.7 km/h 16.7 km/h 85 % 0 mm
21:12 11.3 °C 8.9 °C 1017.5 hPa South 7.7 km/h 13 km/h 85 % 0 mm
21:18 11.3 °C 8.7 °C 1017.5 hPa South 13.7 km/h 16.7 km/h 84 % 0 mm
21:23 11.3 °C 8.7 °C 1017.5 hPa South 8.7 km/h 14.8 km/h 84 % 0 mm
21:28 11.3 °C 8.7 °C 1017.5 hPa South 6.8 km/h 20.4 km/h 84 % 0 mm
21:33 11.3 °C 8.7 °C 1017.5 hPa SSW 8.9 km/h 16.7 km/h 84 % 0 mm
21:38 11.3 °C 8.7 °C 1017.5 hPa SSW 8 km/h 19.3 km/h 84 % 0 mm
21:43 11.3 °C 8.7 °C 1017.2 hPa South 8 km/h 19.3 km/h 84 % 0 mm
21:48 11.3 °C 8.7 °C 1017.2 hPa SSW 12.9 km/h 22.5 km/h 84 % 0 mm
21:53 11.4 °C 8.8 °C 1017.2 hPa SSW 11.3 km/h 19.3 km/h 84 % 0 mm
21:58 11.4 °C 8.7 °C 1016.8 hPa South 7.2 km/h 18.5 km/h 83 % 0 mm
22:03 11.4 °C 8.7 °C 1016.8 hPa South 9.7 km/h 22.5 km/h 83 % 0 mm
22:08 11.4 °C 8.7 °C 1016.8 hPa SSW 10.1 km/h 16.7 km/h 83 % 0 mm
22:13 11.5 °C 8.7 °C 1016.8 hPa South 9.7 km/h 20.9 km/h 83 % 0 mm
22:18 11.5 °C 8.7 °C 1016.8 hPa South 9.7 km/h 20.9 km/h 83 % 0 mm
22:23 11.6 °C 8.8 °C 1016.5 hPa South 9.7 km/h 19.3 km/h 83 % 0 mm
22:28 11.6 °C 8.8 °C 1016.5 hPa South 7.2 km/h 14.8 km/h 83 % 0 mm
22:33 11.6 °C 8.8 °C 1016.5 hPa South 9.7 km/h 16.1 km/h 83 % 0 mm
22:38 11.6 °C 8.6 °C 1016.1 hPa South 9.7 km/h 19.3 km/h 82 % 0 mm
22:43 11.5 °C 8.6 °C 1016.1 hPa SSW 3.2 km/h 12.9 km/h 82 % 0 mm
22:48 11.4 °C 8.7 °C 1016.1 hPa South 9.7 km/h 20.9 km/h 83 % 0 mm
22:53 11.4 °C 8.5 °C 1016.1 hPa SSW 9.7 km/h 19.3 km/h 82 % 0 mm
22:58 11.4 °C 8.4 °C 1015.8 hPa SSW 4.3 km/h 9.7 km/h 82 % 0 mm
23:03 11.4 °C 8.6 °C 1015.8 hPa SSW 7.2 km/h 18.5 km/h 83 % 0 mm
23:08 11.3 °C 8.6 °C 1015.8 hPa South 8.5 km/h 17.7 km/h 83 % 0 mm
23:13 11.3 °C 8.5 °C 1015.8 hPa South 5.5 km/h 13 km/h 83 % 0 mm
23:18 11.2 °C 8.4 °C 1015.8 hPa South 14.5 km/h 16.7 km/h 83 % 0 mm
23:23 11.2 °C 8.4 °C 1015.8 hPa South 5.8 km/h 11.1 km/h 83 % 0 mm
23:28 11.2 °C 8.4 °C 1015.8 hPa South 7.7 km/h 14.8 km/h 83 % 0 mm
23:33 11.1 °C 8.3 °C 1015.8 hPa SSW 7.1 km/h 11.1 km/h 83 % 0 mm
23:39 11.1 °C 8.3 °C 1015.8 hPa SSW 6.4 km/h 13 km/h 83 % 0 mm
23:44 11.1 °C 8.3 °C 1015.5 hPa South 6.8 km/h 13 km/h 83 % 0 mm
23:49 11.1 °C 8.3 °C 1015.5 hPa South 8.2 km/h 12.9 km/h 83 % 0 mm
23:54 11.1 °C 8.4 °C 1015.5 hPa South 11.1 km/h 18.5 km/h 84 % 0 mm
23:59 11.1 °C 8.4 °C 1015.1 hPa SW 7.1 km/h 11.1 km/h 84 % 0 mm
Crab Meadow Weather
Compliments of Weather Underground - 3 mb

Script developed by  Jim McMurry - jmcmurry@mwt.net Adapted for the template by  Wim van der Kuil - Leuven-Template.eu

Weather Terms: Flood Warning (river flood)- A warning for specific communities or areas along a river where flooding is imminent or occurring. Flood warnings normally give specific crest forecasts.